Tracking 29033 objects as of 22-Jun-2024
HD Live streaming from Space Station
objects crossing your sky now

ONEWEB-0278

Track ONEWEB-0278 now!
10-day predictions
ONEWEB-0278 is classified as:


NORAD ID: 48996
Int'l Code: 2021-061AF
Perigee: 1,203.7 km
Apogee: 1,206.1 km
Inclination: 87.9 °
Period: 109.4 minutes
Semi major axis: 7575 km
RCS: Unknown
Launch date: July 1, 2021
Source: United Kingdom (UK)
Launch site: VOSTOCHNY COSMODROME (VOSTO)
Your satellite tracking list
Your tracking list is empty




NASA's NSSDC Master Catalog

Two Line Element Set (TLE):
1 48996U 21060AF  24174.10285720  .00000042  00000-0  76253-4 0  9991
2 48996  87.9101  13.1165 0001537  81.6452 278.4853 13.16595444145596
Source of the keplerian elements: AFSPC